Regional Weather Roundup
Issued by NWS Sioux Falls, SD

Home | Current Version | Previous Version | Graphics & Text | Print | Product List | Glossary On
Versions: 1 2 3 4 5 6 7 8 9 10 11 12 13 14 15 16 17 18 19 20 21 22 23 24 25 26 27 28 29 30 31 32 33 34 35 36 37 38 39 40 41 42 43 44 45 46 47 48 49 50
000
ASUS43 KFSD 202310
RWRFSD

WEATHER ROUNDUP FOR SE SOUTH DAKOTA/SW MINNESOTA/NW IOWA
NATIONAL WEATHER SERVICE SIOUX FALLS SD
600 PM CDT SUN APR 20 2014

NOTE: "FAIR" INDICATES FEW OR NO CLOUDS BELOW 12,000 FEET WITH NO
SIGNIFICANT WEATHER AND OR OBSTRUCTIONS TO VISIBILITY.


SDZ038>040-050-052>070-210000-
SOUTHEAST SOUTH DAKOTA

CITY           SKY/WX    TMP DP  RH WIND       PRES   REMARKS
CHAMBERLAIN      N/A     81  41  24 S9        29.85F
HURON          SUNNY     80  38  22 S8        29.84F
MADISON        FAIR      77  41  27 SE12G17   29.88F
MITCHELL       SUNNY     82  40  22 S7        29.85S
SIOUX FALLS    MOSUNNY   78  48  34 S7        29.86F
WINNER         FAIR      83  40  21 S13G22    29.84F
YANKTON        MOSUNNY   81  54  39 SE5       29.86F
$$

MNZ071-072-080-081-089-090-097-098-210000-
SOUTHWEST MINNESOTA

CITY           SKY/WX    TMP DP  RH WIND       PRES   REMARKS
FAIRMONT       MOSUNNY   75  52  43 SE8       29.93S
JACKSON        MOSUNNY   77  50  38 S6        29.91F
LUVERNE        SUNNY     79  45  29 S12       29.88F
MARSHALL       SUNNY     75  36  23 SE9       29.91S
MONTEVIDEO     SUNNY     75  37  25 SE10      29.93S
PIPESTONE      SUNNY     77  41  27 E9        29.90F
REDWOOD FALLS  SUNNY     76  35  22 E8        29.91F
TRACY          SUNNY     75  44  32 E8        29.91F
WINDOM         SUNNY     77  48  36 E7        29.91F
WORTHINGTON    MOSUNNY   77  48  36 S12       29.92F
$$

IAZ001>003-012>014-020>022-031-032-NEZ013-014-SDZ071-210000-
NORTHWEST IOWA

CITY           SKY/WX    TMP DP  RH WIND       PRES   REMARKS
CHEROKEE       CLOUDY    80  52  38 S5        29.87F
DENISON        PTSUNNY   81  50  34 SW17      29.88F
ESTHERVILLE    MOSUNNY   75  55  49 S13       29.90F
LE MARS        PTSUNNY   82  52  34 S9G15     29.86F
ORANGE CITY    PTSUNNY   81  48  32 S6        29.87F
SHELDON        MOSUNNY   77  52  41 SE7G14    29.88F
SIOUX CITY     CLOUDY    82  49  31 S16       29.86R
SPENCER        PTSUNNY   76  56  49 SE5       29.90S
STORM LAKE     CLOUDY    79  52  38 S12G18    29.90F
$$

ABBREVIATIONS USED IN REMARKS
   TC - TEMPERATURE IN CELSIUS
  WCI - WIND CHILL INDEX
   HX - HEAT INDEX
  VSB - VISIBILITY




USA.gov is the U.S. government's official web portal to all federal, state and local government web resources and services.